TimeCST,TemperatureF,Dew PointF,Humidity,Sea Level PressureIn,VisibilityMPH,Wind Direction,Wind SpeedMPH,Gust SpeedMPH,PrecipitationIn,Events,Conditions,WindDirDegrees,DateUTC
12:08 AM,30.2,28.4,93,29.78,6.0,SSE,11.5,-,N/A,,Mostly Cloudy,160,2012-12-09 06:08:00
12:53 AM,32.0,28.0,85,29.81,7.0,South,5.8,-,N/A,,Overcast,190,2012-12-09 06:53:00
1:18 AM,32.0,28.4,87,29.76,6.0,South,5.8,-,N/A,,Overcast,190,2012-12-09 07:18:00
1:53 AM,32.0,28.0,85,29.81,7.0,SSW,6.9,-,N/A,,Overcast,200,2012-12-09 07:53:00
2:35 AM,32.0,28.4,87,29.74,10.0,SW,3.5,-,N/A,,Overcast,230,2012-12-09 08:35:00
2:53 AM,32.0,28.9,88,29.79,10.0,West,4.6,-,N/A,,Overcast,260,2012-12-09 08:53:00
3:43 AM,30.2,28.4,93,29.76,2.5,NW,12.7,-,0.00,Snow,Light Snow,320,2012-12-09 09:43:00
3:53 AM,30.0,28.0,92,29.80,2.5,NW,13.8,-,0.00,Snow,Light Snow,320,2012-12-09 09:53:00
4:12 AM,30.2,28.4,93,29.75,1.8,NW,12.7,-,0.00,Snow,Light Snow,320,2012-12-09 10:12:00
4:29 AM,30.2,28.4,93,29.75,1.2,NNW,10.4,-,0.00,Snow,Light Snow,330,2012-12-09 10:29:00
4:53 AM,30.0,28.0,92,29.81,1.0,NNW,9.2,-,0.00,Snow,Light Snow,330,2012-12-09 10:53:00
5:13 AM,30.2,28.4,93,29.77,0.8,NNW,25.3,29.9,0.00,Snow,Light Snow,340,2012-12-09 11:13:00
5:53 AM,23.0,19.9,88,29.84,0.8,NNW,24.2,34.5,0.00,Snow,Light Snow,330,2012-12-09 11:53:00
6:53 AM,18.0,14.0,84,29.91,0.5,NNW,27.6,36.8,0.00,Fog-Snow,Light Freezing Fog,330,2012-12-09 12:53:00
7:53 AM,16.0,12.0,84,29.97,0.8,NNW,28.8,35.7,0.00,Snow,Blowing Snow,330,2012-12-09 13:53:00
8:23 AM,15.8,10.4,79,29.93,0.2,NNW,29.9,40.3,0.00,Fog-Snow,Snow,330,2012-12-09 14:23:00
8:53 AM,15.1,10.9,84,30.01,0.2,NNW,26.5,38.0,0.00,Fog-Snow,Snow,330,2012-12-09 14:53:00
9:22 AM,14.0,10.4,86,29.97,0.2,NNW,25.3,42.6,0.01,Fog-Snow,Snow,330,2012-12-09 15:22:00
9:53 AM,14.0,10.0,84,30.05,0.2,NNW,31.1,40.3,0.01,Fog-Snow,Snow,340,2012-12-09 15:53:00
10:28 AM,12.2,8.6,85,30.02,0.2,NNW,26.5,41.4,0.00,Fog-Snow,Snow,330,2012-12-09 16:28:00
10:53 AM,12.9,8.1,81,30.09,0.2,NNW,28.8,40.3,0.00,Snow,Heavy Snow,340,2012-12-09 16:53:00
11:28 AM,12.2,6.8,79,30.03,0.5,NNW,31.1,39.1,0.00,Snow,Blowing Snow,330,2012-12-09 17:28:00
11:37 AM,10.4,6.8,85,30.03,0.2,NNW,27.6,40.3,0.00,Fog-Snow,Light Freezing Fog,330,2012-12-09 17:37:00
11:53 AM,10.9,7.0,84,30.10,0.2,NNW,33.4,41.4,0.00,Fog-Snow,Light Freezing Fog,340,2012-12-09 17:53:00
12:18 PM,10.4,6.8,85,30.04,0.5,NNW,31.1,43.7,N/A,Snow,Blowing Snow,340,2012-12-09 18:18:00
12:31 PM,10.4,6.8,85,30.05,0.2,NNW,35.7,54.1,0.00,Fog-Snow,Snow,340,2012-12-09 18:31:00
12:53 PM,10.0,6.1,84,30.13,0.2,NNW,28.8,43.7,0.00,Fog-Snow,Snow,340,2012-12-09 18:53:00
1:53 PM,10.0,6.1,84,30.15,0.5,NNW,29.9,42.6,0.00,Fog-Snow,Light Snow,340,2012-12-09 19:53:00
2:53 PM,10.0,5.0,80,30.19,0.2,NNW,31.1,43.7,0.00,Snow,Heavy Snow,330,2012-12-09 20:53:00
3:05 PM,10.4,5.0,79,30.13,0.5,NNW,32.2,40.3,0.00,Snow,Snow,340,2012-12-09 21:05:00
3:38 PM,8.6,3.2,79,30.16,1.0,NNW,29.9,35.7,0.01,Snow,Light Snow,330,2012-12-09 21:38:00
3:53 PM,9.0,3.9,80,30.24,2.0,NNW,25.3,32.2,0.01,Snow,Blowing Snow,340,2012-12-09 21:53:00
4:04 PM,8.6,3.2,79,30.17,3.0,NNW,25.3,33.4,N/A,Snow,Blowing Snow,340,2012-12-09 22:04:00
4:26 PM,8.6,3.2,79,30.18,1.8,NNW,28.8,39.1,N/A,Snow,Blowing Snow,340,2012-12-09 22:26:00
4:44 PM,8.6,1.4,73,30.18,3.0,NNW,24.2,32.2,N/A,Snow,Blowing Snow,340,2012-12-09 22:44:00
4:53 PM,9.0,3.0,77,30.25,2.5,NNW,26.5,35.7,N/A,Snow,Blowing Snow,340,2012-12-09 22:53:00
5:09 PM,8.6,3.2,79,30.19,4.0,NNW,24.2,35.7,N/A,Snow,Blowing Snow,340,2012-12-09 23:09:00
5:53 PM,8.1,1.9,76,30.28,9.0,NNW,20.7,28.8,N/A,,Partly Cloudy,330,2012-12-09 23:53:00
6:53 PM,7.0,-0.0,73,30.31,10.0,NNW,23.0,-,N/A,,Clear,330,2012-12-10 00:53:00
7:53 PM,6.1,-0.0,76,30.33,10.0,NNW,21.9,-,N/A,,Clear,330,2012-12-10 01:53:00
8:53 PM,5.0,-0.9,76,30.33,10.0,NW,19.6,-,N/A,,Clear,320,2012-12-10 02:53:00
9:53 PM,3.9,-2.0,76,30.31,10.0,NW,15.0,-,N/A,,Clear,320,2012-12-10 03:53:00
10:53 PM,1.9,-4.0,76,30.30,10.0,NW,12.7,-,N/A,,Clear,310,2012-12-10 04:53:00
11:53 PM,1.9,-4.0,76,30.30,10.0,NW,12.7,-,N/A,,Clear,310,2012-12-10 05:53:00